Location: Antist
(43.1184°N, 0.1270°E)
Time: 21:15:22
(UTC+00:00)

Cosmos 2227 Rocket - Pass Details

Date: 19 January 2020
Orbit: 841 x 843 km, 71.0° (Epoch: 16 February)

Event Time Altitude Azimuth Distance (km) Brightness Sun altitude
Rises 17:21:58 0° 151° (SSE) 3,384 5.3 -5.4°
Reaches altitude 10° 17:25:35 10° 128° (SE) 2,455 4.3 -6.0°
Maximum altitude 17:28:26 14° 97° (E) 2,172 3.8 -6.5°
Drops below altitude 10° 17:31:16 10° 67° (ENE) 2,463 3.9 -7.0°
Enters shadow 17:32:00 - 60° (ENE) 2,616 4.1 -7.1°
